Location: Cheching
(60.0667°N, 164.2167°W)
Time: 10:36:16
(UTC+00:00)

O/OREOS (USA 219) - Visible Passes

Search period start: 17 January 2021 00:00
Search period end: 27 January 2021 00:00
Orbit: 621 x 646 km, 72.0° (Epoch: 22 May)

Date Brightness Start Highest point End Pass type
(mag) Time Alt. Az. Time Alt. Az. Time Alt. Az.
17 Jan ? 03:26:26 10° NW 03:31:04 85° SW 03:35:38 10° SSE visible
17 Jan ? 05:06:36 10° WNW 05:09:53 20° WSW 05:13:09 10° SSW visible
17 Jan ? 17:50:10 10° SE 17:52:56 16° E 17:55:42 10° ENE visible
18 Jan ? 03:48:36 10° NW 03:53:04 51° WSW 03:57:29 10° SSE visible
18 Jan ? 05:30:03 10° WNW 05:31:28 11° W 05:32:53 10° WSW visible
18 Jan ? 18:10:46 10° SSE 18:14:36 27° ESE 18:18:28 10° NE visible
19 Jan ? 04:10:55 10° NW 04:14:56 30° WSW 04:18:54 10° S visible
19 Jan ? 18:32:03 10° S 18:36:26 44° ESE 18:40:49 10° NE visible
20 Jan ? 04:33:31 10° WNW 04:36:38 18° WSW 04:39:44 10° SW visible
20 Jan ? 17:16:43 10° SE 17:19:41 17° ESE 17:22:40 10° ENE visible
21 Jan ? 04:57:30 10° W 04:58:12 10° W 04:58:55 10° WSW visible
21 Jan ? 17:37:26 10° SSE 17:41:23 28° ESE 17:45:20 10° NE visible
22 Jan ? 03:37:46 10° NW 03:41:42 28° WSW 03:45:34 10° SSW visible
22 Jan ? 16:24:02 10° ESE 16:24:52 10° E 16:25:43 10° E visible
22 Jan ? 17:58:48 10° S 18:03:13 47° ESE 18:07:40 10° NE visible
23 Jan ? 04:00:28 10° WNW 04:03:23 17° WSW 04:06:18 10° SW visible
23 Jan ? 16:43:17 10° SE 16:46:26 18° ESE 16:49:36 10° ENE visible
23 Jan ? 18:20:35 10° SSW 18:25:12 79° SE 18:29:50 10° NE visible
24 Jan ? 17:04:08 10° S 17:08:09 31° ESE 17:12:12 10° NE visible
25 Jan ? 15:50:09 10° ESE 15:51:36 11° E 15:53:04 10° ENE visible
25 Jan ? 17:25:33 10° SSW 17:30:01 51° ESE 17:34:30 10° NE visible
26 Jan ? 16:09:54 10° SSE 16:13:12 20° ESE 16:16:30 10° ENE visible
26 Jan ? 17:47:24 10° SSW 17:52:01 84° SE 17:56:39 10° NE visible
